[[{"header":{"parameterUnit":"m.s-1","parameterCategory":1,"la1":30.2992,"la2":30.254,"lo1":-89.0895,"lo2":-89.0443,"dy":0.0025,"dx":0.0025,"nx":19,"ny":19,"refTime":"2026-03-14T03:00:00:Z","depth":0,"parameterNumber":2,"parameterNumberName":"U-component_of_WINDS"},"data":[0,0,0,-2.1903,-2.1907,-2.2106,-2.2107,-2.2351,-2.2353,0,0,0,0,0,0,0,0,0,0,0,-2.1835,-2.1837,-2.1902,-2.1907,-2.2106,-2.2107,-2.235,-2.2353,0,0,0,0,0,0,0,0,0,0,0,-2.1835,-2.1836,-2.1838,-2.1908,-2.2106,-2.2107,-2.235,-2.2204,0,0,0,0,0,0,0,0,0,0,-2.2013,-2.1942,-2.1836,-2.1838,-2.1909,-2.2105,-2.2107,-2.2197,-2.2213,-2.2256,0,-2.2289,0,-2.2325,-2.2368,-2.2369,0,0,0,-2.1914,-2.1929,-2.199,-2.1838,-2.1911,-2.2105,-2.2018,-2.2206,-2.2224,-2.2277,-2.2293,-2.2302,-2.2329,-2.237,-2.2371,-2.2588,-2.2589,0,0,-2.1903,-2.1867,-2.1977,-2.2001,-2.1967,-2.2012,-2.2024,-2.2217,-2.2233,-2.2294,-2.2308,-2.2333,-2.2371,-2.2373,-2.2587,-2.2588,0,0,0,-2.1867,-2.1859,-2.1916,-2.199,-2.2027,-2.2017,-2.2032,-2.2225,-2.2246,-2.2311,-2.2335,-2.2373,-2.2375,-2.2587,-2.2588,-2.2586,0,0,0,-2.1861,-2.1838,-2.1911,-2.1891,-2.2023,-2.2128,-2.2034,-2.2233,-2.2256,-2.2334,-2.2373,-2.2378,-2.2586,-2.2587,-2.2584,-2.259,0,0,0,-2.1825,-2.1834,-2.186,-2.1888,-2.1972,-2.2126,-2.2158,-2.2238,-2.2271,-2.2369,-2.2378,-2.2585,-2.2587,-2.2583,-2.2588,-2.2637,0,0,0,-2.1778,-2.1856,-2.1859,-2.1956,-2.197,-2.2122,-2.2157,-2.2273,-2.2357,-2.2374,-2.2586,-2.2588,-2.2582,-2.2587,-2.2635,-2.267,-2.2681,0,0,-2.1857,-2.1864,-2.1925,-2.1933,-2.2075,-2.2095,-2.2238,-2.235,-2.2394,-2.2521,-2.2527,-2.2585,-2.2588,-2.2636,-2.2758,-2.2767,0,0,0,-2.1937,-2.198,-2.2025,-2.2103,-2.219,-2.2265,-2.2359,-2.2402,-2.2511,-2.2451,-2.2617,-2.262,-2.265,-2.2668,-2.2675,-2.2703,-2.2595,-2.2595,-2.2594,-2.1996,-2.2047,-2.215,-2.2224,-2.2299,-2.2396,-2.2462,-2.2536,-2.2566,-2.2604,-2.2641,-2.2709,-2.2729,-2.2735,-2.2763,-2.2665,-2.2665,-2.2665,-2.2665,-2.2116,-2.2184,-2.2221,-2.2334,-2.2387,-2.2484,-2.2581,-2.2599,-2.2698,-2.2685,-2.2714,-2.2694,-2.2743,-2.277,-2.2665,-2.2665,-2.2665,-2.2665,-2.2665,-2.2159,-2.2201,-2.2249,-2.2367,-2.2453,-2.2527,-2.262,-2.2666,-2.2711,-2.2739,-2.2784,-2.2785,-2.279,-2.2758,-2.2758,-2.2758,-2.2758,-2.2759,-2.2759,-2.2184,-2.224,-2.2311,-2.241,-2.2466,-2.2546,-2.2645,-2.2703,-2.2779,-2.2805,-2.2806,-2.2832,-2.2738,-2.2713,-2.2763,-2.2762,-2.2761,-2.2761,-2.2761,-2.2285,-2.227,-2.2379,-2.2435,-2.2556,-2.2638,-2.2697,-2.281,-2.2865,-2.291,-2.2931,-2.2854,-2.2865,-2.286,-2.2839,-2.2919,-2.2919,-2.2919,-2.2919,-2.2321,-2.2332,-2.2454,-2.2541,-2.2632,-2.2695,-2.282,-2.2898,-2.2978,-2.3015,-2.3011,-2.2988,-2.298,-2.2997,-2.2989,-2.297,-2.3081,-2.3081,-2.3081,-2.2386,-2.2407,-2.2502,-2.2577,-2.2675,-2.2759,-2.2878,-2.2978,-2.3065,-2.3089,-2.3046,-2.3039,-2.3003,-2.2988,-2.3009,-2.2995,-2.2962,0,0]},{"header":{"parameterUnit":"m.s-1","parameterCategory":1,"la1":30.2992,"la2":30.254,"lo1":-89.0895,"lo2":-89.0443,"dy":0.0025,"dx":0.0025,"nx":19,"ny":19,"refTime":"2026-03-14T03:00:00:Z","depth":0,"parameterNumber":3,"parameterNumberName":"V-component_of_WINDS"},"data":[0,0,0,3.6539,3.6538,3.6489,3.6489,3.6461,3.6462,0,0,0,0,0,0,0,0,0,0,0,3.6575,3.6576,3.6539,3.6538,3.6489,3.6489,3.6461,3.6462,0,0,0,0,0,0,0,0,0,0,0,3.6575,3.6576,3.6576,3.6538,3.6489,3.6489,3.6461,3.6486,0,0,0,0,0,0,0,0,0,0,3.6527,3.6582,3.6575,3.6576,3.6538,3.649,3.6489,3.6486,3.6484,3.6499,0,3.6518,0,3.649,3.6462,3.6462,0,0,0,3.6522,3.6584,3.6551,3.6576,3.6538,3.649,3.6507,3.6485,3.6483,3.6496,3.6517,3.6515,3.6489,3.6462,3.6462,3.66,3.6602,0,0,3.6525,3.6578,3.6553,3.6551,3.6561,3.6509,3.6506,3.6483,3.6509,3.6517,3.6514,3.6489,3.6462,3.6462,3.6599,3.6601,0,0,0,3.6543,3.6581,3.6547,3.6553,3.6542,3.6508,3.6504,3.651,3.6495,3.6513,3.6488,3.6462,3.6462,3.6597,3.66,3.672,0,0,0,3.6544,3.6592,3.655,3.6582,3.6543,3.6525,3.6533,3.6496,3.6492,3.6489,3.6462,3.6462,3.6596,3.6598,3.6713,3.6767,0,0,0,3.6571,3.6594,3.6595,3.6585,3.6566,3.6524,3.6507,3.6494,3.6478,3.6462,3.6462,3.6595,3.6598,3.6707,3.6757,3.6817,0,0,0,3.6615,3.6704,3.6598,3.6687,3.6566,3.66,3.6507,3.6529,3.653,3.6462,3.6596,3.6599,3.6705,3.6751,3.6811,3.6877,3.6909,0,0,3.6756,3.6723,3.6771,3.6674,3.674,3.6603,3.6686,3.6637,3.6587,3.6599,3.6601,3.6715,3.6756,3.6816,3.7077,3.7104,0,0,0,3.6833,3.6869,3.6874,3.6878,3.6842,3.6815,3.6748,3.6729,3.6736,3.6604,3.6752,3.6775,3.6808,3.6837,3.6859,3.6883,3.6615,3.6615,3.6615,3.7109,3.704,3.7115,3.704,3.7044,3.6973,3.697,3.6932,3.6862,3.6899,3.6901,3.7068,3.7104,3.712,3.7146,3.6931,3.6932,3.6932,3.6933,3.7309,3.7346,3.725,3.7288,3.7214,3.7245,3.718,3.7129,3.7146,3.7061,3.7086,3.6998,3.7151,3.717,3.6941,3.694,3.6939,3.6938,3.6937,3.748,3.7485,3.7462,3.7458,3.7464,3.7385,3.7405,3.7338,3.7275,3.73,3.7294,3.7291,3.7279,3.7302,3.7303,3.7303,3.7304,3.7304,3.7305,3.7666,3.7635,3.766,3.763,3.7623,3.7604,3.7534,3.7524,3.7496,3.7445,3.7445,3.737,3.718,3.7132,3.7313,3.7312,3.7311,3.731,3.7309,3.789,3.7828,3.7868,3.7861,3.7818,3.7827,3.7741,3.7728,3.771,3.7722,3.7642,3.7513,3.7473,3.7455,3.7415,3.7658,3.7658,3.7658,3.7658,3.8032,3.8006,3.8031,3.8023,3.8008,3.7934,3.798,3.7926,3.786,3.7844,3.78,3.7742,3.7726,3.7695,3.7672,3.7633,3.7926,3.7927,3.7927,3.8165,3.8134,3.8186,3.8122,3.8084,3.8052,3.8092,3.8087,3.7999,3.7936,3.783,3.7819,3.7724,3.7698,3.7631,3.7596,3.7524,0,0]}]]